DMSP 5D-2 F11 DEB, 28322

Orbit data source: Space-Track

DMSP 5D-2 F11 DEB, 28322 is space debris in SSO originally from a launch on Thu, 28 Nov 1991 UTC launched from the Air Force Western Test Range (AFWTR). Debris objects in space refer to the collection of defunct objects orbiting the Earth. Examples of debris include non-operational satellites, rocket bodies, and fragments generated from explosions, collisions, or faulty payload assembly.

Loading next visibility...
Identifier
28322, 1991-082AK
Orbit
SSO
Country
Flag of USUS
Related business
Manufacturer
Unknown
Mission
Spacecraft
Bus & Motor
Unknown
Mass
Unknown
Launch date (UTC)
1991-11-28 (35 years ago)
Launch vehicle
Unknown
Launch site
Air Force Western Test Range (AFWTR)
Object type
Payload
Rocket body
Debris
Shape & HBR
Unknown shape, 0.1 m
Radar Cross Section
Small (<0.1 m²)

Expand to show TLE details & history
Last TLE update: 11 hours ago

TLE from 11 hours ago
0 DMSP 5D-2 F11 DEB
1 28322U 91082AK  26208.92833878  .00000915  00000-0  62469-3 0  9998
2 28322  98.5657 204.9286 0113193 111.6232 279.3755 13.99035112132912
Epoch: 2026-07-27T22:16Z
TLE epoch observation values (Epoch: 2026-07-27T22:16:48.470Z)
Latitude
29.4008°
Longitude
-79.72141°
Altitude
888.267 km
Speed
7.417 km/s
True Right ascension
13h 20m 20s
True Declination
29° 15' 24"
Sunlit
Object was in daylight at epoch
Visualization orbit readout
Latitude
Unknown
Longitude
Unknown
Altitude
Unknown
Speed
Unknown
Apparent Right ascension
Unknown
Apparent Declination
Unknown
Sunlit
N/A
Visualization observer readout
Local Sidereal Time
22:27:23
Azimuth
Unknown
Elevation
Unknown
Doppler factor
Unknown
Orbital elements
Apogee altitude
976.637 km
Perigee altitude
811.999 km
Semi-major axis
7,272.455 km
Eccentricity
0.01132
Inclination
98.5657°
RAAN
204.9286°
Arg. of periapsis
111.6232°
True anomaly
278.09288°
Mean anomaly
279.3755°
Eccentric anomaly
278.73447°
Mean motion
3.49963 °/min
Orbital period
102.87 mins
BSTAR
0.00062469
Loading maneuver chart data...
Computing Atmospheric mass density...

Documentation

Showing up to 5 results
|